{"data":{"norad_id":58870,"epoch":"2026-05-24T09:13:37.812288Z","epoch_age_seconds":125245,"freshness":"FRESH","line1":"1 58870U 24019T   26144.38446542  .00000032  00000+0  10692-4 0  9993","line2":"2 58870  43.0008 181.0351 0001148 267.5864  92.4857 15.27578500130645","mean_motion":15.275785,"eccentricity":0.0001148,"inclination_deg":43.0008,"raan_deg":181.0351,"arg_perigee_deg":267.5864,"mean_anomaly_deg":92.4857,"bstar":1.0692e-5,"rev_number":13064,"period_min":94.266841278533,"perigee_km":482.2659229035,"apogee_km":483.8412522624,"semimajor_km":6861.1905875829,"source":"CELESTRAK","updated_at":"2026-05-25T13:38:18.778630Z"}}